Location: ??????????
(54.7560°N, 39.1389°E)
Time: 07:48:02
(UTC+00:00)

NOSS 3-2 (A) - Pass Details

Date: 19 May 2025
Orbit: 674 x 1530 km, 63.4° (Epoch: 29 May)

Event Time Altitude Azimuth Distance (km) Brightness Sun altitude
Rises 22:04:45 0° 311° (NW) 3,777 7.0 -14.7°
Reaches altitude 10° 22:07:11 10° 308° (NW) 2,936 6.3 -14.6°
Maximum altitude 22:14:12 64° 229° (SW) 1,379 4.0 -14.4°
Drops below altitude 10° 22:22:41 10° 151° (SSE) 3,517 6.0 -14.1°
Enters shadow 22:25:43 - 149° (SSE) 4,526 6.6 -14.0°
